Location: Peterborough
(44.3091°N, 78.3197°W)
Time: 07:02:45
(UTC-04:00)

A-11 Canister half - Pass Details

Date: 29 March 2023
Orbit: 1513 x 1686 km, 47.2° (Epoch: 04 June)

Event Time Altitude Azimuth Distance (km) Brightness Sun altitude
Rises 21:26:46 0° 231° (SW) 4,762 11.9 -19.7°
Reaches altitude 10° 21:29:49 10° 229° (SW) 3,802 11.3 -20.2°
Maximum altitude 21:39:26 68° 149° (SSE) 1,740 9.0 -21.7°
Enters shadow 21:48:26 14° 70° (ENE) 3,636 10.6 -23.1°
